Regional Weather Roundup
Issued by NWS

Home | Current Version | Previous Version | Text Only | Print | Product List | Glossary Off
Versions: 1 2 3 4 5 6 7 8 9 10 11 12 13 14 15 16 17 18 19 20 21 22 23 24 25 26 27 28 29 30 31 32 33 34 35 36 37 38 39 40 41 42 43 44 45 46 47 48 49 50

000
ASUS45 KBOU 310607
RWRCO

WEATHER ROUNDUP FOR COLORADO
NATIONAL WEATHER SERVICE DENVER/BOULDER CO
1100 PM MST FRI JAN 30 2015

NOTE: "FAIR" INDICATES FEW OR NO CLOUDS BELOW 12000 FEET WITH NO
SIGNIFICANT WEATHER AND/OR OBSTRUCTIONS TO VISIBILITY.

COZ001>005-013-030-031-310700-
...NORTHWEST COLORADO...

CITY           SKY/WX    TMP DP  RH WIND       PRES   REMARKS
CRAIG          CLOUDY    33  31  92 CALM      29.96S
HAYDEN         CLOUDY    32  28  86 CALM      29.95S
MEEKER         LGT SNOW  34  32  92 CALM      29.96S FOG
MOUNT WERNER   NOT AVBL
STEAMBOAT SPGS CLOUDY    33  29  87 CALM      29.95F
WALDEN         CLOUDY    30  27  86 CALM      29.98S
$$

COZ006>008-011-310700-
...WEST CENTRAL VALLEYS...

CITY           SKY/WX    TMP DP  RH WIND       PRES   REMARKS
GRAND JUNCTION LGT RAIN  39  39 100 N3        29.95F
MONTROSE       CLOUDY    39  37  92 CALM      29.97S
EAGLE          LGT SNOW  34  32  93 CALM      29.99S VSB 3/4
RIFLE          LGT RAIN  37  35  92 CALM      29.96S
DELTA          LGT RAIN  41  40  98 CALM      29.96S
NUCLA          CLOUDY    34  34 100 CALM      30.00S
$$

COZ017>023-064>068-310700-
...SOUTHWEST COLORADO...

CITY           SKY/WX    TMP DP  RH WIND       PRES   REMARKS
DURANGO        LGT SNOW  32  31  96 E3        29.99S FOG
CORTEZ         LGT RAIN  36  34  92 SW8       29.97S
PAGOSA SPRINGS FLURRIES  34  34 100 CALM      30.00F
TELLURIDE      CLOUDY    33  31  90 CALM      29.97S
WOLF CREEK PAS SNOW      23  23 100 SW6       30.07F VSB 1/2 WCI  16
$$

COZ009-010-012-014-032>034-037-058>063-310700-
...CENTRAL COLORADO...

CITY           SKY/WX    TMP DP  RH WIND       PRES   REMARKS
ASPEN          CLOUDY    31  30  96 CALM      29.94F
BUENA VISTA    LGT SNOW  30  29  96 CALM      30.05S
COPPER MTN     LGT SNOW  27  19  74 S12G17    30.03F WCI  16
BERTHOUD PASS  HAZE      14   9  79 SE30      30.05F VSB<1/4 WCI  -7
COTTONWOOD PAS LGT SNOW  30  28  93 CALM      30.05F VSB 1
GUNNISON       CLOUDY    34  28  80 N7        30.01F WCI  28
KREMMLING      CLOUDY    30  27  86 CALM      30.00S
LEADVILLE      LGT SNOW  24  23  96 S7        30.01F FOG     WCI  16
MONARCH PASS   CLOUDY    21  19  93 MISG      30.15S
SALIDA         CLOUDY    33  32  96 CALM      30.12F
SUNLIGHT       LGT SNOW  30  28  93 CALM        N/A
WILKERSON PASS LGT SNOW N/A N/A N/A SE5       30.09S
$$

COZ069>075-310700-
...SAN LUIS VALLEY/SANGRE DE CRISTO MOUNTAINS...

CITY           SKY/WX    TMP DP  RH WIND       PRES   REMARKS
ALAMOSA        CLOUDY    30  28  92 CALM      30.02F
LA VETA PASS   SNOW      27  23  86 MISG      30.05F VSB 1/2
SAGUACHE       CLOUDY    30  28  93 N3        30.03F
$$

COZ035-036-038>040-310700-
...NORTHERN COLORADO FRONT RANGE...

CITY           SKY/WX    TMP DP  RH WIND       PRES   REMARKS
DENVER INTL AP CLOUDY    36  27  69 N9        30.05S
DMNS CITY PARK   N/A     39  26  57 N5        30.05F
AURORA         CLOUDY    36  27  72 N6        30.05F
FRONT RANGE AP NOT AVBL
ERIE MUNI ARPT MOCLDY    36  28  73 CALM      30.05F
BOULDER MUN AP CLOUDY    37  27  65 CALM      30.05F
CENTENNIAL     MOCLDY    36  27  69 W6        30.04F
BROOMFIELD     MOCLDY    37  28  70 N7        30.05F
FORT COLLINS   CLOUDY    37  25  60 CALM      30.07F
LONGMONT       CLOUDY    39  28  64 CALM      30.07F
$$

COZ041-046-047-076>085-087-088-310700-
...PIKES PEAK/PALMER DIVIDE AND SOUTHERN FOOTHILLS...

CITY           SKY/WX    TMP DP  RH WIND       PRES   REMARKS
COLO. SPRINGS  CLOUDY    38  28  67 NW16      30.03F
A. F. ACADEMY  CLOUDY    34  30  86 N8        30.04F WCI  27
ELLICOTT       CLOUDY   N/A N/A N/A N10       30.02F
FALCON         CLOUDY    34  27  76 NW12G18   30.04F WCI  25
FORT CARSON    CLOUDY    38  31  74 N12       30.02F
LIMON          FOG       31  31 100 CALM      30.03S VSB 1/4
MONUMENT HILL  CLOUDY    32  28  86 W8        30.03F WCI  25
TRINIDAD       LGT RAIN  34  31  88 W13       30.04F WCI  25
$$

COZ042>045-048>051-090-091-310700-
...NORTHEAST COLORADO...

CITY           SKY/WX    TMP DP  RH WIND       PRES   REMARKS
GREELEY ARPT   CLOUDY    37  25  60 N7        30.04F
AKRON          CLOUDY    33  29  85 NW9       30.00F WCI  25
BURLINGTON     CLOUDY    34  32  92 S10       30.04F WCI  26
WRAY           CLOUDY    37  33  88 S5        30.05F
STERLING       CLOUDY    34  30  86 N5        30.03S WCI  30
HOLYOKE        NOT AVBL
FORT MORGAN    CLOUDY    36  27  68 N9        30.04S
$$

COZ086-089-092>099-310700-
...SOUTHEAST COLORADO...

CITY           SKY/WX    TMP DP  RH WIND       PRES   REMARKS
PUEBLO         CLOUDY    38  35  89 CALM      30.03F
LA JUNTA       CLOUDY    38  36  92 CALM      30.03F
LAMAR          CLOUDY    37  36  96 S9        30.03F
SPRINGFIELD      N/A     33  33 100 S18G26    30.06F WCI  22
$$


USA.gov is the U.S. government's official web portal to all federal, state and local government web resources and services.